Location: Castro Valley
(37.6940°N, 122.0850°W)
Time: 18:39:53
(UTC-07:00)

Amateur Radio Satellites - All Passes

Search period start: 03 July 2015 18:09
Search period end: 04 July 2015 18:09
Location: Castro Valley, 37.6940°N, 122.0850°W

Satellite Date Start Highest point End Downlink Frequencies (MHz)
Time Altitude Azimuth
SO-50 03 Jul 18:32:08 18:36:13 27° 312° (NW) 18:40:20 436.795
O/OREOS (USA 219) 03 Jul 18:40:03 18:44:21 43° 254° (WSW) 18:48:38 437.305
CUTE-I 03 Jul 18:49:25 18:54:47 78° 257° (WSW) 19:00:12 437.470
BRITE-PL 03 Jul 18:54:51 18:57:29 14° 66° (ENE) 19:00:19 437.365/2234.400
AIST 2 03 Jul 19:15:53 19:18:57 19° 249° (WSW) 19:21:52 435.215
MOZHAYETS 4 03 Jul 19:19:53 19:20:46 10° 296° (WNW) 19:21:22
Cubesat XI-IV 03 Jul 19:23:56 19:28:52 37° 263° (W) 19:33:48 437.490
JUGNU 03 Jul 19:30:46 19:33:27 13° 183° (S) 19:36:06 437.505
CUBESAT XI-V 03 Jul 19:40:41 19:45:21 67° 284° (WNW) 19:49:58 437.345
GONETS M04 03 Jul 19:44:02 19:51:09 29° 69° (ENE) 19:58:30
CUSAT 1 03 Jul 19:45:41 19:48:18 71° 263° (W) 19:50:55 437.405
Cosmos 2504 03 Jul 19:51:32 19:54:54 13° 278° (W) 19:57:42 435.465 / 435.565
HO-68 03 Jul 19:54:54 20:00:59 32° 65° (ENE) 20:07:12 435.675
COMPASS 1 03 Jul 20:05:57 20:07:00 11° 66° (ENE) 20:08:17 437.405
GOMX 1 03 Jul 20:10:17 20:15:12 44° 74° (ENE) 20:19:53 467.674
CUTE 1.7 + AOD 2 03 Jul 20:11:07 20:14:11 21° 70° (ENE) 20:17:23 437.475
CANX-2 03 Jul 20:14:00 20:17:23 25° 71° (ENE) 20:20:52 2200.000
STRAND 1 03 Jul 20:14:47 20:19:58 83° 101° (ESE) 20:25:06 437.568
CINEMA 3 03 Jul 20:15:57 20:17:48 13° 67° (ENE) 20:19:50 145.822/145.860
PRISM 03 Jul 20:16:27 20:20:40 89° 284° (WNW) 20:24:50 437.425
SRMSAT 03 Jul 20:21:15 20:23:54 13° 178° (S) 20:26:34 437.500
BRITE-PL 03 Jul 20:30:00 20:35:33 73° 258° (WSW) 20:40:48 437.365/2234.400
DANDE 03 Jul 20:45:12 20:46:39 13° 269° (W) 20:47:57 436.750
AUBIESAT-1 03 Jul 20:53:26 20:55:26 13° 97° (E) 20:57:44 437.475
DOVE 4 03 Jul 20:58:17 21:03:15 86° 82° (E) 21:07:56 437.250
SEEDS 03 Jul 20:59:34 21:03:40 61° 76° (ENE) 21:07:48 437.485
CUBEBUG 2 03 Jul 21:08:12 21:11:25 21° 70° (ENE) 21:14:42 437.445
AAUSAT CUBESAT 2 03 Jul 21:12:43 21:16:46 57° 75° (ENE) 21:20:51 437.432
ZACube-1 03 Jul 21:14:49 21:17:10 15° 68° (ENE) 21:19:40 437.345
Oscar 11 03 Jul 21:23:42 21:27:32 33° 72° (ENE) 21:31:27 145.826/435.025
M-CUBED/EXP-1 PRIME 03 Jul 21:25:19 21:29:14 35° 103° (ESE) 21:33:27 437.505
DELFI C3 03 Jul 21:34:15 21:37:41 29° 72° (ENE) 21:41:12 145.870
COMPASS 1 03 Jul 21:38:09 21:42:13 57° 260° (W) 21:46:19 437.405
GONETS M04 03 Jul 21:40:06 21:48:33 58° 269° (W) 21:56:57
HUMSAT D 03 Jul 21:40:51 21:42:21 12° 67° (ENE) 21:44:02 437.325/437.525
HO-68 03 Jul 21:41:41 21:48:32 46° 261° (W) 21:55:19 435.675
CUTE 1.7 + AOD 2 03 Jul 21:46:15 21:49:57 29° 264° (W) 21:53:38 437.475
FUNcube-1 03 Jul 21:49:40 21:53:31 36° 73° (ENE) 21:57:22 145.935
GOMX 1 03 Jul 21:49:44 21:53:30 19° 267° (W) 21:56:58 467.674
CANX-2 03 Jul 21:49:48 21:53:16 24° 266° (W) 21:56:40 2200.000
CINEMA 3 03 Jul 21:50:09 21:54:40 56° 260° (W) 21:58:58 145.822/145.860
STRAND 1 03 Jul 21:56:44 21:58:33 11° 298° (WNW) 22:00:02 437.568
UWE-3 03 Jul 21:59:46 22:04:00 66° 76° (ENE) 22:08:10 435.000/436.395/437.385
SRMSAT 03 Jul 22:10:22 22:12:14 11° 188° (S) 22:14:01 437.500
Cosmos 2499 03 Jul 22:20:59 22:28:44 62° 79° (E) 22:37:08 435.465 / 435.565
VELOX 1 03 Jul 22:23:26 22:26:28 19° 68° (ENE) 22:29:38 145.980
AUBIESAT-1 03 Jul 22:26:15 22:30:24 53° 290° (WNW) 22:34:48 437.475
DX 1 03 Jul 22:34:21 22:38:32 45° 73° (ENE) 22:42:45 434.975-435.025
CUBEBUG 2 03 Jul 22:44:13 22:48:00 28° 264° (W) 22:51:40 437.445
ZACube-1 03 Jul 22:49:15 22:53:15 40° 262° (W) 22:57:12 437.345
UKube-1 03 Jul 22:56:12 23:00:31 75° 76° (ENE) 23:04:52 .
M-CUBED/EXP-1 PRIME 03 Jul 23:00:41 23:03:52 21° 295° (WNW) 23:07:07 437.505
Oscar 11 03 Jul 23:00:47 23:03:51 18° 268° (W) 23:06:47 145.826/435.025
ANTELSAT 03 Jul 23:07:53 23:11:45 30° 96° (E) 23:15:45 437.575/2403.000
AISAT 03 Jul 23:08:45 23:13:10 61° 74° (ENE) 23:17:35 437.250
DELFI C3 03 Jul 23:09:57 23:12:50 18° 267° (W) 23:15:37 145.870
HUMSAT D 03 Jul 23:13:42 23:17:42 50° 260° (W) 23:21:42 437.325/437.525
50 SAT 03 Jul 23:18:11 23:22:01 88° 81° (E) 23:25:52 437.505
QB50P1 03 Jul 23:19:47 23:22:13 15° 92° (E) 23:24:49 145.935-145.965
TIGRISAT 03 Jul 23:20:22 23:24:30 40° 98° (E) 23:28:43 435.000
FUNcube-1 03 Jul 23:27:19 23:30:02 16° 268° (W) 23:32:32 145.935
CUBEBUG 1 03 Jul 23:28:54 23:33:13 52° 74° (ENE) 23:37:33 437.445
NANOSAT C BR1 03 Jul 23:33:36 23:36:52 22° 94° (E) 23:40:12 145.865
ESTCUBE 1 03 Jul 23:38:12 23:42:44 80° 77° (ENE) 23:47:18 437.505/2401.250
DUCHIFAT 1 03 Jul 23:40:36 23:44:06 26° 95° (E) 23:47:39 145.980
TISAT 1 03 Jul 23:44:21 23:46:24 14° 67° (ENE) 23:48:39 437.305
POLYITAN 1 03 Jul 23:44:38 23:48:22 31° 97° (E) 23:52:07 437.675
VELOX 1 03 Jul 23:58:36 00:02:46 37° 262° (W) 00:06:56 145.980
UNISAT 6 03 Jul 23:59:40 00:04:02 68° 284° (WNW) 00:08:28 437.425
BUGSAT 1 04 Jul 00:00:35 00:04:04 28° 96° (E) 00:07:33 437.445
DX 1 04 Jul 00:12:35 00:15:04 14° 269° (W) 00:17:20 434.975-435.025
QB50P2 04 Jul 00:14:05 00:18:19 72° 102° (ESE) 00:22:31 145.880/145.840
POPSAT HIP 1 04 Jul 00:15:00 00:19:12 71° 101° (ESE) 00:23:23 437.405
Cosmos 2499 04 Jul 00:15:15 00:21:29 25° 274° (W) 00:27:43 435.465 / 435.565
PCSat 04 Jul 00:19:52 00:23:20 17° 46° (NE) 00:26:58 145.827
SPROUT 04 Jul 00:33:23 00:37:42 77° 77° (ENE) 00:42:01 437.525
ANTELSAT 04 Jul 00:44:59 00:48:25 22° 290° (WNW) 00:51:47 437.575/2403.000
AISAT 04 Jul 00:48:53 00:50:12 11° 271° (W) 00:51:13 437.250
QB50P1 04 Jul 00:54:21 00:58:17 38° 287° (WNW) 01:02:09 145.935-145.965
TIGRISAT 04 Jul 00:58:06 01:00:59 17° 292° (WNW) 01:03:45 435.000
CUBEBUG 1 04 Jul 01:07:49 01:09:56 13° 270° (W) 01:11:47 437.445
NANOSAT C BR1 04 Jul 01:09:07 01:12:41 27° 289° (WNW) 01:16:11 145.865
DUCHIFAT 1 04 Jul 01:16:28 01:19:49 23° 290° (WNW) 01:23:03 145.980
TISAT 1 04 Jul 01:17:42 01:21:49 47° 261° (W) 01:25:55 437.305
POLYITAN 1 04 Jul 01:20:59 01:24:05 20° 291° (WNW) 01:27:05 437.675
SO-50 04 Jul 01:24:43 01:28:36 23° 46° (NE) 01:32:32 436.795
BEESAT 04 Jul 01:26:22 01:30:31 31° 70° (ENE) 01:34:46 436.000
BUGSAT 1 04 Jul 01:36:23 01:39:23 20° 291° (WNW) 01:42:17 437.445
Cosmos 2491 04 Jul 01:39:02 01:45:23 23° 66° (ENE) 01:52:04 435.465 / 435.565
SWISSCUBE 04 Jul 01:41:23 01:45:58 49° 73° (ENE) 01:50:36 437.505
ITUPSAT 1 04 Jul 01:46:23 01:50:59 50° 73° (ENE) 01:55:39 437.325
PCSat 04 Jul 02:01:58 02:07:23 71° 246° (WSW) 02:12:45 145.827
YUBILEINY 04 Jul 02:14:25 02:18:27 15° 80° (E) 02:23:06 435.215
RS-15 04 Jul 02:26:30 02:37:01 60° 113° (ESE) 02:47:54 29.354- 29.394
Oscar 19 04 Jul 02:46:19 02:51:29 87° 279° (W) 02:56:38 437.125/150
Gurwin Techsat 1B 04 Jul 02:48:02 02:52:28 27° 94° (E) 02:56:57 435.225
KKS-1 04 Jul 02:49:16 02:53:23 38° 72° (ENE) 02:57:32 437.445
ITAMSAT 1 04 Jul 02:57:07 03:01:40 31° 96° (E) 03:06:17 435.822/435.867
BEESAT 04 Jul 03:04:28 03:08:24 24° 266° (W) 03:12:14 436.000
SO-50 04 Jul 03:04:40 03:09:24 46° 245° (WSW) 03:14:01 436.795
AIST 1 04 Jul 03:14:45 03:19:05 61° 81° (E) 03:23:21
SWISSCUBE 04 Jul 03:21:13 03:24:09 15° 269° (W) 03:26:53 437.505
ITUPSAT 1 04 Jul 03:26:18 03:29:13 15° 269° (W) 03:31:56 437.325
Cosmos 2491 04 Jul 03:34:31 03:43:13 72° 267° (W) 03:51:51 435.465 / 435.565
STARS 04 Jul 03:42:13 03:46:38 89° 233° (SW) 03:51:04 437.465
HORYU 2 04 Jul 03:45:41 03:46:39 11° 89° (E) 03:47:56 437.375
YUBILEINY 04 Jul 04:05:29 04:14:11 87° 97° (E) 04:22:56 435.215
JAS-2 04 Jul 04:11:48 04:18:18 51° 99° (E) 04:25:32 435.910
KKS-1 04 Jul 04:27:06 04:30:11 18° 267° (W) 04:33:07 437.445
Gurwin Techsat 1B 04 Jul 04:27:41 04:32:30 34° 290° (WNW) 04:37:13 435.225
ITAMSAT 1 04 Jul 04:36:37 04:41:08 30° 291° (WNW) 04:45:33 435.822/435.867
MOZHAYETS 4 04 Jul 04:39:22 04:43:50 57° 75° (ENE) 04:48:22
RS-15 04 Jul 04:39:49 04:49:59 40° 317° (NW) 05:00:21 29.354- 29.394
AO-7 04 Jul 04:44:54 04:52:54 49° 100° (E) 05:00:55 29.400- 29.500
HORYU 2 04 Jul 05:19:21 05:23:46 61° 285° (WNW) 05:28:10 437.375
Cosmos 2491 04 Jul 05:36:21 05:38:44 11° 283° (WNW) 05:40:19 435.465 / 435.565
STRAND 1 04 Jul 05:53:45 05:55:16 11° 62° (ENE) 05:57:04 437.568
JAS-2 04 Jul 05:57:32 06:03:10 29° 292° (WNW) 06:09:08 435.910
Cubesat XI-IV 04 Jul 06:05:46 06:07:08 11° 88° (E) 06:08:54 437.490
YUBILEINY 04 Jul 06:06:40 06:12:23 18° 298° (WNW) 06:17:37 435.215
MOZHAYETS 4 04 Jul 06:19:34 06:21:31 12° 271° (W) 06:23:12
Cosmos 2504 04 Jul 06:24:39 06:31:36 79° 95° (E) 06:38:32 435.465 / 435.565
AO-7 04 Jul 06:38:03 06:45:31 37° 298° (WNW) 06:52:49 29.400- 29.500
CUBESAT XI-V 04 Jul 06:41:45 06:46:28 87° 258° (WSW) 06:51:13 437.345
VERMONT LUNAR 04 Jul 06:45:13 06:46:38 13° 146° (SE) 06:48:07 437.305
RS-15 04 Jul 07:00:10 07:06:55 17° 349° (N) 07:13:38 29.354- 29.394
PRISM 04 Jul 07:04:25 07:08:27 50° 74° (ENE) 07:12:32 437.425
CUSAT 1 04 Jul 07:08:01 07:11:50 17° 93° (E) 07:15:26 437.405
CUTE-I 04 Jul 07:08:35 07:13:46 49° 99° (E) 07:18:57 437.470
O/OREOS (USA 219) 04 Jul 07:11:48 07:15:27 26° 103° (ESE) 07:19:10 437.305
STRAND 1 04 Jul 07:28:41 07:33:50 84° 256° (WSW) 07:39:02 437.568
AIST 2 04 Jul 07:35:28 07:36:43 11° 109° (ESE) 07:38:14 435.215
BEESAT 3 04 Jul 07:41:58 07:46:01 80° 119° (ESE) 07:50:08 437.485
Cubesat XI-IV 04 Jul 07:42:34 07:47:58 79° 285° (WNW) 07:53:19 437.490
ISS 04 Jul 07:53:13 07:56:07 31° 134° (SE) 07:59:03 145.825
BEESAT 2 04 Jul 07:53:44 07:57:50 84° 117° (ESE) 08:01:58 435.950
DANDE 04 Jul 08:06:44 08:13:47 46° 96° (E) 08:19:24 436.750
M-CUBED/EXP-1 PRIME 04 Jul 08:13:01 08:15:49 26° 67° (ENE) 08:18:44 437.505
GOMX 1 04 Jul 08:16:30 08:17:45 11° 89° (E) 08:19:15 467.674
VERMONT LUNAR 04 Jul 08:20:06 08:23:11 66° 159° (SSE) 08:26:17 437.305
Cosmos 2504 04 Jul 08:20:50 08:24:48 15° 295° (WNW) 08:28:22 435.465 / 435.565
PHONESAT 2.4 04 Jul 08:34:38 08:37:05 19° 147° (SSE) 08:39:36 2401.200-2431.200
BRITE-PL 04 Jul 08:37:43 08:41:43 37° 97° (E) 08:45:35 437.365/2234.400
PRISM 04 Jul 08:42:39 08:44:15 12° 270° (W) 08:45:37 437.425
GONETS M04 04 Jul 08:42:47 08:50:21 35° 87° (E) 08:58:05
CUSAT 1 04 Jul 08:47:42 08:54:26 62° 280° (W) 08:59:31 437.405
SEEDS 04 Jul 08:47:47 08:49:15 12° 89° (E) 08:50:58 437.485
CUTE-I 04 Jul 08:49:37 08:53:31 20° 294° (WNW) 08:57:15 437.470
O/OREOS (USA 219) 04 Jul 08:51:00 08:54:49 26° 300° (WNW) 08:58:34 437.305
DOVE 4 04 Jul 09:00:03 09:03:20 23° 94° (E) 09:06:41 437.250
AAUSAT CUBESAT 2 04 Jul 09:00:12 09:00:53 10° 89° (E) 09:01:51 437.432
AIST 2 04 Jul 09:10:39 09:14:51 60° 303° (WNW) 09:19:05 435.215
HO-68 04 Jul 09:11:12 09:17:45 39° 97° (E) 09:24:22 435.675
AUBIESAT-1 04 Jul 09:13:10 09:16:21 46° 256° (WSW) 09:19:39 437.475
RS-15 04 Jul 09:17:12 09:25:25 22° 25° (NNE) 09:34:13 29.354- 29.394
BEESAT 3 04 Jul 09:23:12 09:24:34 11° 318° (NW) 09:25:47 437.485
COMPASS 1 04 Jul 09:23:44 09:27:12 25° 95° (E) 09:30:44 437.405
ISS 04 Jul 09:29:44 09:32:32 26° 330° (NNW) 09:35:19 145.825
CUTE 1.7 + AOD 2 04 Jul 09:32:35 09:36:47 51° 100° (E) 09:40:58 437.475
BEESAT 2 04 Jul 09:35:17 09:36:31 11° 318° (NW) 09:37:35 435.950
CANX-2 04 Jul 09:35:52 09:40:08 64° 100° (E) 09:44:24 2200.000
CINEMA 3 04 Jul 09:46:51 09:50:40 35° 97° (E) 09:54:36 145.822/145.860
M-CUBED/EXP-1 PRIME 04 Jul 09:49:06 09:50:49 13° 263° (W) 09:52:24 437.505
DANDE 04 Jul 09:50:50 09:56:58 28° 285° (WNW) 10:01:52 436.750
GOMX 1 04 Jul 09:52:16 09:56:19 47° 286° (WNW) 10:00:17 467.674
UWE-3 04 Jul 09:52:38 09:54:56 15° 91° (E) 09:57:28 435.000/436.395/437.385
VERMONT LUNAR 04 Jul 09:57:08 10:00:11 49° 355° (N) 10:03:15 437.305
ANTELSAT 04 Jul 10:05:51 10:09:04 22° 70° (ENE) 10:12:23 437.575/2403.000
PHONESAT 2.4 04 Jul 10:11:23 10:14:48 83° 165° (SSE) 10:18:16 2401.200-2431.200
QB50P1 04 Jul 10:13:28 10:13:30 10° 65° (ENE) 10:13:47 145.935-145.965
BRITE-PL 04 Jul 10:17:19 10:19:59 16° 293° (WNW) 10:22:24 437.365/2234.400
TIGRISAT 04 Jul 10:17:50 10:21:28 28° 71° (ENE) 10:25:08 435.000
SEEDS 04 Jul 10:21:15 10:25:24 51° 285° (WNW) 10:29:32 437.485
NANOSAT C BR1 04 Jul 10:25:30 10:27:40 14° 67° (ENE) 10:30:02 145.865
DUCHIFAT 1 04 Jul 10:32:02 10:34:38 17° 68° (ENE) 10:37:22 145.980
AAUSAT CUBESAT 2 04 Jul 10:32:46 10:36:54 56° 285° (WNW) 10:41:01 437.432
CUBEBUG 2 04 Jul 10:36:08 10:40:19 62° 101° (E) 10:44:35 437.445
POLYITAN 1 04 Jul 10:36:29 10:39:29 20° 69° (ENE) 10:42:36 437.675
DOVE 4 04 Jul 10:37:42 10:41:06 24° 289° (WNW) 10:44:25 437.250
GONETS M04 04 Jul 10:38:34 10:47:00 47° 285° (WNW) 10:55:20
ZACube-1 04 Jul 10:39:16 10:43:14 39° 98° (E) 10:47:17 437.345
UKube-1 04 Jul 10:47:08 10:49:21 14° 91° (E) 10:51:46 .
Oscar 11 04 Jul 10:48:17 10:52:39 89° 303° (WNW) 10:57:00 145.826/435.025
DELFI C3 04 Jul 10:49:22 10:53:26 65° 101° (E) 10:57:28 145.870
BUGSAT 1 04 Jul 10:49:32 10:52:14 17° 68° (ENE) 10:55:04 437.445
Cosmos 2499 04 Jul 10:56:14 11:02:57 49° 91° (E) 11:09:45 435.465 / 435.565
UNISAT 6 04 Jul 10:56:46 11:01:04 84° 77° (ENE) 11:05:20 437.425
50 SAT 04 Jul 10:57:47 10:59:00 11° 90° (E) 11:00:26 437.505
HO-68 04 Jul 10:58:57 11:05:27 38° 294° (WNW) 11:11:51 435.675
COMPASS 1 04 Jul 10:59:20 11:02:48 24° 290° (WNW) 11:06:11 437.405
HUMSAT D 04 Jul 10:59:37 11:03:11 27° 96° (E) 11:06:49 437.325/437.525
AISAT 04 Jul 11:03:06 11:05:06 13° 90° (E) 11:07:19 437.250
QB50P2 04 Jul 11:05:06 11:09:05 41° 73° (ENE) 11:13:06 145.880/145.840
POPSAT HIP 1 04 Jul 11:05:53 11:09:51 41° 73° (ENE) 11:13:51 437.405
CUTE 1.7 + AOD 2 04 Jul 11:10:13 11:12:18 13° 293° (WNW) 11:14:10 437.475
CANX-2 04 Jul 11:14:27 11:15:35 11° 294° (WNW) 11:16:28 2200.000
FUNcube-1 04 Jul 11:15:18 11:19:32 78° 283° (WNW) 11:23:50 145.935
CUBEBUG 1 04 Jul 11:22:22 11:23:15 11° 89° (E) 11:24:26 437.445
CINEMA 3 04 Jul 11:24:54 11:27:41 17° 291° (WNW) 11:30:21 145.822/145.860
UWE-3 04 Jul 11:27:43 11:31:42 41° 286° (WNW) 11:35:44 435.000/436.395/437.385
RS-15 04 Jul 11:29:25 11:41:00 62° 53° (NE) 11:53:05 29.354- 29.394
ESTCUBE 1 04 Jul 11:33:45 11:36:57 19° 93° (E) 11:40:16 437.505/2401.250
VERMONT LUNAR 04 Jul 11:34:12 11:37:20 64° 13° (NNE) 11:40:28 437.305
ANTELSAT 04 Jul 11:42:00 11:45:45 28° 264° (W) 11:49:26 437.575/2403.000
QB50P1 04 Jul 11:44:38 11:48:52 67° 259° (W) 11:53:06 145.935-145.965
PHONESAT 2.4 04 Jul 11:49:36 11:52:58 51° 358° (N) 11:56:22 2401.200-2431.200
VELOX 1 04 Jul 11:50:40 11:54:54 45° 99° (E) 11:59:07 145.980
TIGRISAT 04 Jul 11:54:53 11:58:15 22° 266° (W) 12:01:30 435.000
NANOSAT C BR1 04 Jul 11:59:05 12:03:10 45° 261° (W) 12:07:15 145.865
DX 1 04 Jul 12:00:25 12:04:45 72° 285° (WNW) 12:09:03 434.975-435.025
DUCHIFAT 1 04 Jul 12:06:12 12:10:10 38° 262° (W) 12:14:07 145.980
POLYITAN 1 04 Jul 12:11:23 12:15:13 31° 263° (W) 12:18:59 437.675
CUBEBUG 2 04 Jul 12:15:37 12:16:36 10° 294° (WNW) 12:17:19 437.445
ZACube-1 04 Jul 12:16:39 12:19:20 16° 292° (WNW) 12:21:53 437.345
UKube-1 04 Jul 12:21:38 12:25:46 44° 287° (WNW) 12:29:51 .
SPROUT 04 Jul 12:23:19 12:25:45 15° 91° (E) 12:28:21 437.525
BUGSAT 1 04 Jul 12:23:31 12:27:27 36° 262° (W) 12:31:21 437.445
Oscar 19 04 Jul 12:25:28 12:27:36 13° 63° (ENE) 12:30:00 437.125/150
50 SAT 04 Jul 12:30:10 12:33:55 44° 286° (WNW) 12:37:39 437.505
HUMSAT D 04 Jul 12:35:33 12:38:48 22° 290° (WNW) 12:41:57 437.325/437.525
AISAT 04 Jul 12:37:45 12:42:02 49° 287° (WNW) 12:46:15 437.250
QB50P2 04 Jul 12:42:45 12:45:14 15° 269° (W) 12:47:30 145.880/145.840
POPSAT HIP 1 04 Jul 12:43:27 12:45:57 15° 269° (W) 12:48:16 437.405
Cosmos 2499 04 Jul 12:50:42 12:56:28 25° 290° (WNW) 13:02:06 435.465 / 435.565
CUBEBUG 1 04 Jul 12:55:47 13:00:05 58° 285° (WNW) 13:04:19 437.445
TISAT 1 04 Jul 13:04:14 13:07:51 28° 96° (E) 13:11:30 437.305
ESTCUBE 1 04 Jul 13:09:47 13:13:57 36° 288° (WNW) 13:18:03 437.505/2401.250
VERMONT LUNAR 04 Jul 13:11:16 13:14:09 33° 207° (SSW) 13:17:03 437.305
PHONESAT 2.4 04 Jul 13:27:44 13:31:12 78° 15° (NNE) 13:34:41 2401.200-2431.200
VELOX 1 04 Jul 13:28:26 13:31:07 15° 293° (WNW) 13:33:37 145.980
RS-15 04 Jul 13:42:31 13:53:07 38° 252° (WSW) 14:03:40 29.354- 29.394
SWISSCUBE 04 Jul 13:45:02 13:47:36 15° 90° (E) 13:50:23 437.505
ITUPSAT 1 04 Jul 13:50:17 13:52:55 15° 91° (E) 13:55:47 437.325
AO-7 04 Jul 13:56:21 13:58:23 11° 48° (NE) 14:00:59 29.400- 29.500
SPROUT 04 Jul 13:58:02 14:02:03 40° 287° (WNW) 14:06:01 437.525
Oscar 19 04 Jul 14:01:16 14:06:25 74° 259° (WSW) 14:11:33 437.125/150
Gurwin Techsat 1B 04 Jul 14:07:12 14:11:59 36° 70° (ENE) 14:16:50 435.225
ITAMSAT 1 04 Jul 14:13:10 14:17:58 39° 71° (ENE) 14:22:50 435.822/435.867
YUBILEINY 04 Jul 14:18:16 14:26:17 40° 73° (ENE) 14:34:26 435.215
ISS 04 Jul 14:22:17 14:24:55 23° 29° (NNE) 14:27:35 145.825
JAS-2 04 Jul 14:26:30 14:28:40 13° 62° (ENE) 14:31:10 435.910
Cosmos 2491 04 Jul 14:38:16 14:45:10 28° 85° (E) 14:52:20 435.465 / 435.565
TISAT 1 04 Jul 14:40:17 14:43:29 21° 291° (WNW) 14:46:33 437.305
PCSat 04 Jul 15:00:14 15:03:53 19° 107° (ESE) 15:07:44 145.827
BEESAT 04 Jul 15:05:24 15:10:14 83° 282° (WNW) 15:15:02 436.000
PHONESAT 2.4 04 Jul 15:06:02 15:09:02 27° 210° (SSW) 15:12:02 2401.200-2431.200
SWISSCUBE 04 Jul 15:21:09 15:25:50 52° 287° (WNW) 15:30:28 437.505
ITUPSAT 1 04 Jul 15:26:30 15:31:11 51° 287° (WNW) 15:35:49 437.325
STARS 04 Jul 15:34:44 15:37:47 19° 93° (E) 15:40:57 437.465
AO-7 04 Jul 15:41:33 15:49:35 57° 67° (ENE) 15:57:44 29.400- 29.500
AIST 1 04 Jul 15:42:07 15:46:12 39° 92° (E) 15:50:20
Gurwin Techsat 1B 04 Jul 15:47:38 15:52:03 26° 266° (W) 15:56:23 435.225
ITAMSAT 1 04 Jul 15:53:29 15:57:38 23° 267° (W) 16:01:39 435.822/435.867
ISS 04 Jul 15:58:22 16:01:25 38° 225° (SW) 16:04:25 145.825
BEESAT 3 04 Jul 16:02:37 16:06:04 27° 51° (NE) 16:09:31 437.485
JAS-2 04 Jul 16:08:04 16:13:13 69° 259° (WSW) 16:18:33 435.910
Cosmos 2504 04 Jul 16:12:55 16:18:20 22° 69° (ENE) 16:24:20 435.465 / 435.565
BEESAT 2 04 Jul 16:14:54 16:18:27 28° 51° (NE) 16:22:00 435.950
YUBILEINY 04 Jul 16:15:05 16:23:10 42° 272° (W) 16:31:08 435.215
HORYU 2 04 Jul 16:15:29 16:19:54 85° 258° (WSW) 16:24:20 437.375
KKS-1 04 Jul 16:18:16 16:22:42 79° 285° (WNW) 16:27:07 437.445
Cosmos 2491 04 Jul 16:32:50 16:41:32 59° 282° (WNW) 16:50:12 435.465 / 435.565
MOZHAYETS 4 04 Jul 16:37:36 16:40:21 16° 91° (E) 16:43:19
PCSat 04 Jul 16:41:39 16:46:56 52° 301° (WNW) 16:52:14 145.827
STARS 04 Jul 17:10:22 17:14:20 34° 289° (WNW) 17:18:16 437.465
SO-50 04 Jul 17:16:38 17:21:20 89° 300° (WNW) 17:26:14 436.795
AIST 1 04 Jul 17:21:21 17:24:06 16° 289° (WNW) 17:26:42
O/OREOS (USA 219) 04 Jul 17:22:50 17:27:02 37° 64° (ENE) 17:31:16 437.305
Cubesat XI-IV 04 Jul 17:25:04 17:28:25 18° 65° (ENE) 17:31:59 437.490
JUGNU 04 Jul 17:27:51 17:30:11 12° 174° (S) 17:32:35 437.505
AIST 2 04 Jul 17:34:08 17:38:13 47° 56° (NE) 17:42:13 435.215
AO-7 04 Jul 17:35:37 17:42:48 30° 265° (W) 17:49:49 29.400- 29.500
BEESAT 3 04 Jul 17:40:37 17:43:57 24° 247° (WSW) 17:47:09 437.485
BEESAT 2 04 Jul 17:53:08 17:56:24 23° 248° (WSW) 17:59:34 435.950
